STARLINK-35949, 66630

Orbit data source: Space-Track

STARLINK-35949, 66630 is a payload satellite owned by SpaceX/Seattle (US) in LEO that was launched on Sun, 23 Nov 2025 UTC via an FALCON 9 launch vehicle from the Air Force Western Test Range (AFWTR). Payload-class satellites include a variety of spacecraft equipped with specific instruments for various scientific and technological missions. These include communications satellites like Starlink; space stations such as the ISS; scientific satellites like the Hubble; Earth observation satellites from companies like Planet Labs, Umbra, and HawkEye 360; GPS; miniature CubeSats for education and research; and military/defense satellites.

Loading next visibility...
Identifier
66630, 2025-271P
Orbit
LEO
Country
Flag of USUS
Related business
Manufacturer
SpaceX/Seattle
Mission
Operational Commercial Communications
Bus & Motor
STARLINK V2MO, Unknown motor
Mass
575 kg wet, ~530 kg dry
Launch date (UTC)
2025-11-23 (7 months ago)
Launch vehicle
FALCON 9
Launch site
Air Force Western Test Range (AFWTR)
Object type
Payload
Rocket body
Debris
Shape & HBR
Box + 2 Pan, 17.7 m
Radar Cross Section
36.964 m², Large (>1 m²)

Expand to show TLE details & history
Last TLE update: 3 days ago

TLE from 3 days ago
0 STARLINK-35949
1 66630U 25271P   26171.31364855  .00027711  00000-0  82805-3 0  9994
2 66630  53.1597  20.7887 0001175 101.6030 258.5105 15.34407692 33317
Epoch: 2026-06-20T07:31Z
TLE epoch observation values (Epoch: 2026-06-20T07:31:39.234Z)
Latitude
Longitude
-0.65483°
Altitude
463.742 km
Speed
7.636 km/s
True Right ascension
01h 23m 09s
True Declination
0° 00' 00"
Sunlit
Object was in daylight at epoch
Visualization orbit readout
Latitude
Unknown
Longitude
Unknown
Altitude
Unknown
Speed
Unknown
Apparent Right ascension
Unknown
Apparent Declination
Unknown
Sunlit
N/A
Visualization observer readout
Local Sidereal Time
08:53:30
Azimuth
Unknown
Elevation
Unknown
Doppler factor
Unknown
Orbital elements
Apogee altitude
463.741 km
Perigee altitude
462.133 km
Semi-major axis
6,841.074 km
Eccentricity
0.00012
Inclination
53.1597°
RAAN
20.7887°
Arg. of periapsis
101.603°
True anomaly
258.49731°
Mean anomaly
258.5105°
Eccentric anomaly
258.5039°
Mean motion
3.83581 °/min
Orbital period
93.85 mins
BSTAR
0.00082805
Loading maneuver chart data...
Computing Atmospheric mass density...
Loading historical data...
Loading historical data...
Loading historical data...
Loading historical data...
Loading historical data...
Loading historical data...
Loading historical data...

Documentation

Showing up to 5 results
|